Regional Weather Roundup
Issued by NWS

Home | Current Version | Previous Version | Text Only | Print | Product List | Glossary On
Versions: 1 2 3 4 5 6 7 8 9 10 11 12 13 14 15 16 17 18 19 20 21 22 23 24 25 26 27 28 29 30 31 32 33 34 35 36 37 38 39 40 41 42 43 44 45 46 47 48 49 50
000
ASUS43 KOAX 281810
RWRNE

WEATHER ROUNDUP FOR NEBRASKA
NATIONAL WEATHER SERVICE OMAHA NE
100 PM CDT TUE JUL 28 2015

NOTES: SATELLITE DATA IS BEING USED TO AUGMENT CLOUD COVER ABOVE
       12000 FEET.
       "FAIR" INDICATES FEW OR NO CLOUDS BELOW 12,000 FEET WITH NO
       SIGNIFICANT WEATHER AND/OR OBSTRUCTIONS TO VISIBILITY.

  * THESE STATIONS DO NOT REPORT WEATHER SUCH AS RAIN...SNOW OR FOG.

NEZ001>004-019>022-054>056-281900-
NEBRASKA PANHANDLE

CITY           SKY/WX    TMP DP  RH WIND       PRES   REMARKS
SCOTTSBLUFF    SUNNY     76  35  22 NW16      30.12R
6HR MIN TEMP:  53; 6HR MAX TEMP:  76;

ALLIANCE       SUNNY     76  35  22 NW17G26   30.09S
6HR MIN TEMP:  49; 6HR MAX TEMP:  76;

CHADRON        SUNNY     75  39  27 NW16G30   30.08R
6HR MIN TEMP:  54; 6HR MAX TEMP:  75;

KIMBALL        SUNNY     75  32  20 NW16G24   30.14R
SIDNEY         SUNNY     78  35  21 N15G24    30.13S
6HR MIN TEMP:  53; 6HR MAX TEMP:  78;

$$

NEZ057>060-069>072-079>082-281900-
SOUTHWEST NEBRASKA

CITY           SKY/WX    TMP DP  RH WIND       PRES   REMARKS
NORTH PLATTE   SUNNY     81  47  30 N16       30.02S
6HR MIN TEMP:  66; 6HR MAX TEMP:  81;

IMPERIAL       MOSUNNY   81  40  23 N18       30.07S
6HR MIN TEMP:  65; 6HR MAX TEMP:  81; 6HR PCP:  0.01;

LEXINGTON      MOSUNNY   79  52  38 N16G22    30.00R
MCCOOK         SUNNY     81  53  37 N16       30.01R
6HR MIN TEMP:  73; 6HR MAX TEMP:  83;

OGALLALA       SUNNY     78  41  26 N17       30.08S
$$

NEZ005>010-023>029-035>040-094-281900-
NORTH CENTRAL NEBRASKA

CITY           SKY/WX    TMP DP  RH WIND       PRES   REMARKS
VALENTINE      SUNNY     78  44  29 N13G22    30.02R
6HR MIN TEMP:  59; 6HR MAX TEMP:  78;

AINSWORTH      SUNNY     77  48  35 NW14      30.02S
BROKEN BOW     SUNNY     79  51  37 N14G23    30.01R
6HR MIN TEMP:  68; 6HR MAX TEMP:  79;

O`NEILL        SUNNY     76  57  51 NW16G24   29.99S
ORD            SUNNY     79  51  37 N17G29    29.96S
6HR MIN TEMP:  68; 6HR MAX TEMP:  79;

THEDFORD       SUNNY     79  48  33 NW10G20   30.05R
$$

NEZ041-046>049-061>064-073>077-083>087-281900-
SOUTH CENTRAL NEBRASKA

CITY           SKY/WX    TMP DP  RH WIND       PRES   REMARKS
GRAND ISLAND   PTSUNNY   79  68  69 N16G24    29.94R
6HR MIN TEMP:  70; 6HR MAX TEMP:  85; 6HR PCP:  0.02;

AURORA         PTSUNNY   76  71  85 N18       29.92R
HASTINGS       MOSUNNY   78  67  68 N17       29.93R
6HR MIN TEMP:  76; 6HR MAX TEMP:  83;

HEBRON         MOSUNNY   89  68  49 CALM      29.85S HX  92
HOLDREGE       SUNNY     78  55  45 N15G24    29.98R
KEARNEY *      SUNNY     81  54  39 N24G30    29.96R
YORK           PTSUNNY   77  73  88 NW13G23   29.89R
$$

NEZ011>018-030>034-042>045-281900-
NORTHEAST NEBRASKA

CITY           SKY/WX    TMP DP  RH WIND       PRES   REMARKS
NORFOLK        CLOUDY    73  67  81 NW13      29.92R
6HR MIN TEMP:  71; 6HR MAX TEMP:  79; 6HR PCP:  0.02;

ALBION         MOSUNNY   78  63  58 N17G24    29.92F
BLAIR          MOSUNNY   82  72  72 SE7       29.87S
COLUMBUS *     CLOUDY    77  72  83 CALM      29.89S
FREMONT        PTSUNNY   82  73  75 SE10      29.85F
TEKAMAH        TSTM      79  75  87 SE8       29.85F
6HR MIN TEMP:  71; 6HR MAX TEMP:  81; 6HR PCP:  0.21;

WAYNE          CLOUDY    73  69  87 NW16G24   29.91R
$$

NEZ050>053-065>068-078-088>093-281900-
SOUTHEAST NEBRASKA

CITY           SKY/WX    TMP DP  RH WIND       PRES   REMARKS
LINCOLN        MOSUNNY   87  73  62 S9        29.85F HX  94
6HR MIN TEMP:  77; 6HR MAX TEMP:  89; 6HR PCP:  0.01;

OMAHA EPPLEY   PTSUNNY   87  75  67 SE12      29.85S HX  96
6HR MIN TEMP:  73; 6HR MAX TEMP:  87; 6HR PCP:  0.30;

BEATRICE       SUNNY     89  72  58 S9        29.85S HX  96
FALLS CITY     SUNNY     90  76  63 S12       29.85F HX 101
6HR MIN TEMP:  76; 6HR MAX TEMP:  90;

NEBRASKA CITY  SUNNY     88  71  58 S12       29.86S HX  94
PLATTSMOUTH    SUNNY     87  76  70 SE10G16   29.86F HX  96
$$

NEZ044-045-051>053-067-281900-
OMAHA AREA

CITY           SKY/WX    TMP DP  RH WIND       PRES   REMARKS
OMAHA EPPLEY   PTSUNNY   87  75  67 SE12      29.85S HX  96
6HR MIN TEMP:  73; 6HR MAX TEMP:  87; 6HR PCP:  0.30;

BLAIR          MOSUNNY   82  72  72 SE7       29.87S
FREMONT        PTSUNNY   82  73  75 SE10      29.85F
MILLARD        MOSUNNY   87  77  71 SE12      29.85F HX  99
OFFUTT AFB     MOSUNNY   87  76  68 SE14      29.84S HX  98
PLATTSMOUTH    SUNNY     87  76  70 SE10G16   29.86F HX  96
WAHOO          FAIR      84  76  77 SE8       29.85S HX  93
$$


USA.gov is the U.S. government's official web portal to all federal, state and local government web resources and services.